Weather History for Gillette, WY

Change the Weather History Date:

Tuesday, November 6, 2012

  Actual Average Record
Temperature  
Mean Temperature 42 °F 37 °F  
Max Temperature 60 °F 50 °F 76 °F (2010)
Min Temperature 24 °F 25 °F -2 °F (2003)
Degree Days  
Heating Degree Days 23 28  
Month to date heating degree days 113 160  
Since 1 July heating degree days 910 1069  
Cooling Degree Days 0 0  
Month to date cooling degree days 0 0  
Year to date cooling degree days 795 502  
Moisture  
Dew Point 30 °F    
Average Humidity 67    
Maximum Humidity 100    
Minimum Humidity 33    
Precipitation  
Precipitation 0.00 in 0.02 in 0.40 in (1986)
Month to date precipitation T 0.14  
Year to date precipitation 8.47 13.08  
Sea Level Pressure  
Sea Level Pressure 30.16 in    
Wind  
Wind Speed 7 mph (SW)    
Max Wind Speed 18 mph    
Max Gust Speed 22 mph    
Visibility 10 miles    
Events      
T = Trace of Precipitation, MM = Missing Value Source: NWS Daily Summary

Daily Weather History Graph

Daily Weather History Graph

Search for Another Location

Airport:

Trip Planner

Search our weather history database for the weather conditions in past years. The results will help you decide how hot, cold, wet, or windy it might be!

Date:

Astronomy

Nov. 06, 2012 Rise Set
Actual Time 6:46 AM MST 4:44 PM MST
Civil Twilight 6:16 AM MST 5:14 PM MST
Nautical Twilight 5:41 AM MST 5:49 PM MST
Astronomical Twilight 5:07 AM MST 6:23 PM MST
Moon 11:29 PM MST (11/6) 12:38 PM MST (11/6)
Length of Visible Light 10h 58m
Length of Day
9h 57m
Waning Gibbous, 52% of the Moon is Illuminated
Nov 6
Waning Gibbous
Nov 6
Last Quarter
Nov 13
New
Nov 20
First Quarter
Nov 28
Full

Hourly Weather History & Observations

Time (MST) Temp. Windchill Dew Point Humidity Pressure Visibility Wind Dir Wind Speed Gust Speed Precip Events Conditions
12:53 AM 39.0 °F 32.8 °F 35.1 °F 86% 30.13 in 10.0 mi West 9.2 mph - N/A   Clear
1:53 AM 35.1 °F 32.2 °F 33.1 °F 92% 30.16 in 10.0 mi NE 3.5 mph - N/A   Clear
2:53 AM 28.0 °F 22.8 °F 28.0 °F 100% 30.19 in 10.0 mi South 4.6 mph - N/A   Clear
3:53 AM 30.0 °F 26.5 °F 28.9 °F 96% 30.19 in 10.0 mi WSW 3.5 mph - N/A   Partly Cloudy
4:53 AM 30.0 °F 24.1 °F 28.9 °F 96% 30.22 in 10.0 mi West 5.8 mph - N/A   Clear
5:53 AM 27.0 °F - 26.1 °F 96% 30.23 in 10.0 mi Calm Calm - N/A   Clear
6:53 AM 25.0 °F 19.3 °F 23.0 °F 92% 30.27 in 10.0 mi SW 4.6 mph - N/A   Clear
7:53 AM 34.0 °F 31.0 °F 32.0 °F 92% 30.26 in 10.0 mi South 3.5 mph - N/A   Clear
8:53 AM 44.1 °F - 37.0 °F 76% 30.22 in 10.0 mi Calm Calm - N/A   Clear
9:53 AM 51.1 °F - 35.1 °F 54% 30.22 in 10.0 mi West 8.1 mph - N/A   Clear
10:53 AM 55.0 °F - 30.9 °F 40% 30.19 in 10.0 mi NW 9.2 mph - N/A   Partly Cloudy
11:53 AM 55.9 °F - 30.0 °F 37% 30.18 in 10.0 mi Calm Calm - N/A   Clear
12:53 PM 57.9 °F - 32.0 °F 37% 30.14 in 10.0 mi West 9.2 mph - N/A   Clear
1:53 PM 59.0 °F - 30.9 °F 35% 30.15 in 10.0 mi NW 9.2 mph - N/A   Clear
2:53 PM 57.9 °F - 30.0 °F 35% 30.17 in 10.0 mi NNW 6.9 mph - N/A   Clear
3:53 PM 53.1 °F - 30.9 °F 43% 30.17 in 10.0 mi Calm Calm - N/A   Partly Cloudy
4:53 PM 44.1 °F 41.5 °F 30.0 °F 58% 30.18 in 10.0 mi SW 4.6 mph - N/A   Clear
5:53 PM 39.0 °F 32.3 °F 28.9 °F 67% 30.20 in 10.0 mi South 10.4 mph - N/A   Clear
6:53 PM 45.0 °F 41.8 °F 30.9 °F 58% 30.17 in 10.0 mi South 5.8 mph - N/A   Clear
7:53 PM 46.9 °F - 30.9 °F 54% 30.12 in 10.0 mi South 6.9 mph - N/A   Clear
8:53 PM 48.9 °F - 30.9 °F 50% 30.06 in 10.0 mi South 15.0 mph - N/A   Clear
9:53 PM 46.9 °F - 30.0 °F 52% 30.04 in 10.0 mi South 13.8 mph - N/A   Clear
10:53 PM 51.1 °F - 28.9 °F 43% 30.00 in 10.0 mi South 13.8 mph 18.4 mph N/A   Clear
11:53 PM 50.0 °F - 28.9 °F 44% 29.99 in 10.0 mi SW 15.0 mph - N/A   Clear